Location: Pontbriand
(46.1542°N, 71.2542°W)
Time: 17:22:00
(UTC+00:00)

Envisat - Pass Details

Date: 09 December 2021
Orbit: 764 x 766 km, 98.2° (Epoch: 16 January)

Event Time Altitude Azimuth Distance (km) Brightness Sun altitude
Rises 22:03:21 0° 207° (SSW) 3,220 7.1 -10.7°
Reaches altitude 10° 22:06:18 10° 224° (SW) 2,300 6.6 -11.2°
Maximum altitude 22:09:52 19° 270° (W) 1,761 5.9 -11.7°
Drops below altitude 10° 22:13:27 10° 315° (NW) 2,312 5.8 -12.3°
Sets 22:16:26 0° 333° (NNW) 3,244 6.3 -12.8°
